Weather History for CYBW - December, 2011

Change the Weather History Date:

Wednesday, December 7, 2011

  Actual Average Record
Temperature  
Mean Temperature 17 °F -  
Max Temperature 22 °F 27 °F 42 °F (2014)
Min Temperature 12 °F 8 °F -31 °F (2013)
Degree Days  
Heating Degree Days 48    
Moisture  
Dew Point 12 °F    
Average Humidity 78    
Maximum Humidity 93    
Minimum Humidity 64    
Precipitation  
Precipitation 0.02 in - - ()
Sea Level Pressure  
Sea Level Pressure 30.43 in    
Wind  
Wind Speed 6 mph ()    
Max Wind Speed 14 mph    
Max Gust Speed 21 mph    
Visibility 6.5 miles    
Events Snow    
Averages and records for this station are not official NWS values.
T = Trace of Precipitation, MM = Missing Value Source: Averaged Metar Reports

Daily Weather History Graph

Daily Weather History Graph

Search for Another Location

Airport or City:

Trip Planner

Search our weather history database for the weather conditions in past years. The results will help you decide how hot, cold, wet, or windy it might be!

Date:

Astronomy

Dec. 07, 2011 Rise Set
Actual Time 8:26 AM MST 4:31 PM MST
Civil Twilight 7:47 AM MST 5:10 PM MST
Nautical Twilight 7:05 AM MST 5:52 PM MST
Astronomical Twilight 6:24 AM MST 6:32 PM MST
Moon 2:41 PM MST (12/7) 5:37 AM MST (12/7)
Length of Visible Light 9h 22m
Length of Day
8h 04m
Waxing Gibbous, 93% of the Moon is Illuminated
Dec 7
Waxing Gibbous
Dec 10
Full
Dec 17
Last Quarter
Dec 24
New
Dec 31
First Quarter

Hourly Weather History & Observations

Time (MST) Temp. Windchill Dew Point Humidity Pressure Visibility Wind Dir Wind Speed Gust Speed Precip Events Conditions
5:00 AM 22 °F - 18 °F 76% 30.28 in 15 mi ENE 3.5 mph - -   Overcast
5:00 AM 21.2 °F 16.4 °F 17.6 °F 86% 30.28 in 15.0 mi ENE 3.5 mph - N/A   Overcast
6:00 AM 21.2 °F 13.6 °F 17.6 °F 86% 30.30 in 7.0 mi NE 5.8 mph - N/A   Overcast
6:08 AM - - - N/A% - 4.0 mi North 3.5 mph - N/A   Unknown
6:15 AM - - - N/A% - 4.0 mi North 3.5 mph - N/A   Unknown
6:54 AM - - - N/A% - 6.0 mi North 3.5 mph - N/A   Overcast
7:00 AM 21.2 °F 16.4 °F 19.4 °F 93% 30.32 in 10.0 mi North 3.5 mph - N/A Snow Light Snow
8:00 AM 23.0 °F 12.4 °F 17.6 °F 80% 30.35 in 5.0 mi North 10.4 mph - N/A Snow Light Snow
8:13 AM - - - N/A% - 4.0 mi North 10.4 mph - N/A   Unknown
9:00 AM 21.2 °F 11.7 °F 17.6 °F 86% 30.38 in 3.0 mi North 8.1 mph - N/A Snow Light Snow
9:19 AM - - - N/A% - 1.5 mi North 4.6 mph - N/A   Unknown
9:53 AM - - - N/A% - 3.0 mi North 12.7 mph 20.7 mph N/A   Unknown
10:00 AM 19.4 °F 6.0 °F 14.0 °F 80% 30.41 in 3.0 mi North 13.8 mph 20.7 mph N/A Snow Light Snow
11:00 AM 19 °F - 15 °F 76% 30.45 in 3 mi North 5.8 mph - - Snow Light Snow
11:00 AM 19.4 °F 11.5 °F 14.0 °F 80% 30.45 in 3.0 mi North 5.8 mph - N/A Snow Light Snow
11:29 AM - - - N/A% - 1.0 mi NNE 9.2 mph - N/A   Overcast
11:35 AM - - - N/A% - 0.8 mi NE 12.7 mph - N/A   Overcast
11:37 AM - - - N/A% - 1.0 mi NNE 11.5 mph - N/A   Overcast
11:44 AM - - - N/A% - 3.0 mi NNE 11.5 mph - N/A   Unknown
12:00 PM 17.6 °F 7.3 °F 14.0 °F 86% 30.44 in 4.0 mi NNE 8.1 mph - N/A Snow Light Snow
12:38 PM - - - N/A% - 6.0 mi NNE 11.5 mph - N/A   Unknown
1:00 PM 15.8 °F 4.2 °F 8.6 °F 73% 30.45 in 6.0 mi NNE 9.2 mph - N/A Snow Light Snow
2:00 PM 14.0 °F 2.0 °F 8.6 °F 79% 30.47 in 6.0 mi NNE 9.2 mph - N/A Snow Light Snow
2:23 PM - - - N/A% - 7.0 mi North 8.1 mph - N/A   Overcast
2:49 PM - - - N/A% - 7.0 mi NNE 4.6 mph - N/A   Unknown
3:00 PM 14.0 °F 2.9 °F 6.8 °F 73% 30.48 in 7.0 mi North 8.1 mph - N/A Snow Light Snow
4:00 PM 14.0 °F 5.1 °F 8.6 °F 79% 30.49 in 6.0 mi North 5.8 mph - N/A Snow Light Snow
5:00 PM 13 °F - 6 °F 64% 30.50 in 7 mi NNW 8.1 mph - - Snow Light Snow
5:00 PM 14.0 °F 2.0 °F 6.8 °F 73% 30.50 in 8.0 mi NNW 9.2 mph - N/A Snow Light Snow
6:00 PM 14.0 °F 8.2 °F 6.8 °F 73% 30.49 in 9.0 mi NW 3.5 mph - N/A Snow Light Snow
7:00 PM 12.2 °F 2.9 °F 5.0 °F 73% 30.50 in 10.0 mi NW 5.8 mph - N/A Snow Light Snow
7:13 PM - - - N/A% - 15.0 mi NW 5.8 mph - N/A   Overcast
9:00 PM 12.2 °F - 5.0 °F 73% 30.50 in 15.0 mi WNW 2.3 mph - N/A   Overcast
10:00 PM 12.2 °F - 5.0 °F 73% 30.48 in 15.0 mi Calm Calm - N/A   Overcast